Sport private pilot acrobatic tailwheel flight training san jose san francisco bay area california flight school
Book Online at PaperlessFBO

AeroDynamic Webcam

For latest news click here

AeroDynamic Aviation Web Cam
The camera is located on top of our hangar, looking approximately SSW, towards the runways. The picture updates every two minutes. If you can see the hills in the distance (Loma Prieta and Mt Umunhum) the visibility is over 10 miles, and if you can see the tops of the hills the ceilings are higher than 3000' (at least over there). But remember that a webcam is no substitute for a proper weather briefing, preferably from a live Flight Service briefer!

 


METAR = KRHV 190550Z 15005KT 10SM SKC 13/10 A3017 RMK LAST

STATION........ KRHV
OBSERVED....... Fri Dec 19, 00:50 EST
NOW............ Fri Dec 19, 04:18 EST
AGE............ 3:28 hr ago
WIND........... SSE at 6 mph
VISIBILITY..... 10 miles
CLOUDS......... clear skies
TEMP........... 55°F (13°C)
DEWPT.......... 50°F (10°C)
HUMIDITY....... 82%
BAROMETER...... 1022 hPa (30.17 in Hg)

 

Come and fly with us in the beautiful San Francisco Bay Area of California. Our flight school is located at Reid Hillview airport in San Jose (KRHV), at the south end of San Francisco Bay and we offer ground and flight training for sport pilot, private pilot, commercial pilot, instrument rating, CFI (certified flight instructor), tailwheel, acrobatics, and multi engine certificates and ratings.